Location: Greenspot (historical)
(34.0858°N, 117.1109°W)
Time: 05:27:14
(UTC+00:00)

Cosmos 1244 Rocket - Pass Details

Date: 18 April 2024
Orbit: 953 x 997 km, 82.9° (Epoch: 28 May)

Event Time Altitude Azimuth Distance (km) Brightness Sun altitude
Rises 12:42:17 0° 190° (S) 3,665 7.2 -6.9°
Reaches altitude 10° 12:44:48 10° 192° (SSW) 2,714 6.6 -6.4°
Maximum altitude 12:51:00 73° 277° (W) 1,010 4.5 -5.2°
Drops below altitude 10° 12:57:11 10° 2° (N) 2,701 7.1 -4.0°
Sets 12:59:41 0° 4° (N) 3,646 7.8 -3.5°
